User: anonymous   Login
Location: Unspecified
(0.0000°N, 0.0000°E)
Time: 20:01:08
(UTC+00:00)
Language:

SSETI-EXPRESS DEB - Orbit

View from above orbital plane
View from above orbital plane
View from above satellite
View from above satellite

Ground track
Ground track

The orbit data is extracted from the following two-line orbital elements,

1 28897U 05043H   17144.77252597 +.00000197 +00000-0 +46307-4 0  9998
2 28897 097.8595 308.5395 0015412 209.2791 266.5297 14.63827255609448
Epoch (UTC): 24 May 2017 18:32:26
Eccentricity: 0.0015412
inclination: 97.8595°
perigee height: 670 km
apogee height: 692 km
right ascension of ascending node: 308.5395°
argument of perigee: 209.2791°
revolutions per day: 14.63827255
mean anomaly at epoch: 266.5297°
orbit number at epoch: 60944

The dashed part of the orbit path shows where the satellite is in the earth's shadow,  

DLR